Location: Orlando
(28.5380°N, 81.3790°W)
Time: 08:43:58
(UTC-04:00)

N. Korean satellite - Visible Passes

Search period start: 16 October 2019 00:00
Search period end: 26 October 2019 00:00
Orbit: 455 x 508 km, 97.2° (Epoch: 15 October)

Date Brightness Start Highest point End Pass type
(mag) Time Alt. Az. Time Alt. Az. Time Alt. Az.
16 Oct 9.5 19:20:56 10° SSW 19:23:38 22° W 19:26:21 10° NW visible
17 Oct 8.2 06:52:49 10° NNE 06:56:15 40° E 06:59:44 10° S visible
18 Oct 9.9 06:28:24 10° NE 06:30:55 18° E 06:33:28 10° SE visible
19 Oct 10.3 19:39:47 10° WSW 19:41:11 12° W 19:42:36 10° WNW visible
20 Oct 9.0 19:12:49 10° SSW 19:15:48 28° W 19:18:47 10° NW visible
21 Oct 8.8 06:45:10 10° NE 06:48:28 31° E 06:51:46 10° SSE visible
22 Oct 10.2 06:21:04 10° ENE 06:23:06 14° E 06:25:07 10° SE visible
23 Oct 10.0 19:31:11 10° SW 19:33:18 16° W 19:35:26 10° WNW visible
24 Oct 7.3 07:02:20 10° NNE 07:05:57 60° E 07:09:36 10° S visible
25 Oct 9.3 06:37:33 10° NE 06:40:37 25° E 06:43:43 10° SSE visible
